Terminal Aerodrome Forecast
Issued by NWS Salt Lake City, UT

Home | Current Version | Previous Version | Text Only | Print | Product List | Glossary On
Versions: 1 2 3 4 5 6 7 8 9 10 11 12 13 14 15 16 17 18 19 20 21 22 23 24 25 26 27 28 29 30 31 32 33 34 35 36 37 38 39 40 41 42 43 44 45 46 47 48 49 50
000
FTUS45 KSLC 182332
TAFSLC
TAF
KSLC 182332Z 1900/2006 31004KT 6SM HZ SCT100
     FM190300 16007KT 6SM BR SCT100 BKN200
     FM191100 17008KT P6SM VCSH SCT050 BKN090
     FM191500 17008KT 2SM -SN BR SCT007 BKN015
     FM192000 32006KT 3SM -RASN BR SCT010 BKN025
     FM200300 32004KT P6SM VCSH SCT020 BKN040=

USA.gov is the U.S. government's official web portal to all federal, state and local government web resources and services.